NWS Melbourne » East Central Florida Hourly Weather Roundup

 

ASUS42 KMLB 041212
RWRMLB
HOURLY WEATHER ROUNDUP AROUND FLORIDA
NATIONAL WEATHER SERVICE OFFICE MELBOURNE FL
800 AM EDT FRI SEP 04 2015
  
CITY           SKY/WX    TMP DP  RH WIND       PRES   REMARKS
MELBOURNE      SUNNY     78  76  93 W6        29.95R                  
FORT PIERCE    SUNNY     76  75  97 W3        29.96R                  
ORLANDO INTL   PTSUNNY   79  75  87 W3        29.97R                  
DAYTONA BEACH  CLOUDY    78  76  93 W3        29.96R                  
VERO BEACH     SUNNY     78  74  87 W5        29.96R                  
$$
...ELSEWHERE ACROSS CENTRAL FLORIDA...
  
CITY           SKY/WX    TMP DP  RH WIND       PRES   REMARKS
PATRICK AFB    SUNNY     81  77  86 NW10      29.95R                  
CAPE CANAVERAL SUNNY     80  76  87 W7        29.94R                  
TITUSVILLE     SUNNY     77  75  94 W7        29.96R                  
ORLANDO EXEC   PTSUNNY   81  78  91 W5        29.97R                  
LEESBURG       CLOUDY    78  75  90 NW5       29.98R                  
THE VILLAGES     N/A     77  75  94 CALM      29.88R                  
SANFORD        CLOUDY    79  75  87 W6        29.96R                  
NEW SMYRNA BCH SUNNY     77  75  94 W6        29.96R                  
ORMOND BEACH   SUNNY    N/A N/A N/A CALM      29.96R                  
WINTER HAVEN   MOSUNNY   79  78  97 CALM      29.99R                  
KISSIMMEE      SUNNY     79  77  94 CALM      29.98R                  
OKEECHOBEE       N/A     73  73 100 CALM      29.97R                  
TAMPA          PTSUNNY   83  76  79 CALM      29.98R                  
$$
...NORTHERN FLORIDA...
  
CITY           SKY/WX    TMP DP  RH WIND       PRES   REMARKS
PALM COAST     SUNNY     75  75 100 CALM      29.96R FOG              
ST AUGUSTINE   PTSUNNY   79  77  94 NW6       29.97R                  
OCALA          SUNNY     77  73  88 CALM      29.98R                  
GAINESVILLE    CLOUDY    77  74  90 NW5       29.98R                  
JACKSONVILLE   MOSUNNY   77  75  93 CALM      29.97R                  
TALLAHASSEE    PTCLDY    74  71  91 CALM      29.99R                  
$$
...ALONG THE SOUTHEAST COAST TO THE KEYS...
  
CITY           SKY/WX    TMP DP  RH WIND       PRES   REMARKS
WEST PALM BCH  MOSUNNY   78  74  87 SW6       29.97R                  
MIAMI          MOSUNNY   81  75  82 W3        29.97R                  
KEY WEST       SUNNY     84  76  76 CALM      29.97R                  
$$
...MARINE REPORTS...
  
STATION/POSITION TIME  TEMP    WIND        PRES    WAVE   SWELL
                       AIR SEA DIR/SP/G            HT/PER HT/PER/DIR
                 (UTC) (F)     (DEG/KT/KT) (MB)    (FT/S) (FT/S/D)
ST AUGUSTINE FP  1200   79 83  290/  5/  5 1015.4R
20NM E CAPE CANA 1150   82 85  290/ 12/ 14 1014.1R   2/ 9   2/ 80/ 9
120 E NEW SMYRNA 1150   78 85  300/ 19/ 23 1013.9R   3/ 4   2/ 60/12
TRIDENT PIER     1148   80 86  270/  5/  8 1014.7R
SEBASTIAN INLET  1200   80     310/  7     1015.0
4NM E PORT CANAV 1140      85                N/A     1/13
6NM NE FPR INLET 1151      83                N/A     1/13
SETTLEMENT PT GB 1200   84     240/ 11/ 12 1015.0R
$$
 

 

Link to: East Central Florida Hourly Weather Roundup


USA.gov is the U.S. government's official web portal to all federal, state and local government web resources and services.